Location: Paderno d�Adda
(45.6667°N, 9.4333°E)
Time: 20:35:08
(UTC+00:00)

COSMO-SKYMED 1 - Pass Details

Date: 19 September 2020
Orbit: 621 x 623 km, 97.9° (Epoch: 28 October)

Event Time Altitude Azimuth Distance (km) Brightness Sun altitude
Rises 17:49:37 0° 10° (N) 2,916 6.0 -5.1°
Reaches altitude 10° 17:51:50 10° 7° (N) 2,004 5.2 -5.5°
Maximum altitude 17:56:08 62° 287° (WNW) 703 3.2 -6.2°
Drops below altitude 10° 18:00:25 10° 207° (SSW) 1,987 5.4 -7.0°
Sets 18:02:36 0° 204° (SSW) 2,888 6.2 -7.4°
